| time (UTC) | temp F | wind direction | speed knots | gust knots | rain 1hr in | rain 24hr in | rain mn in | humidity % | barometer mb |
| 20260505054533 | 59 | 219 | 3.5 | 18.2 | 0.00 | 0.00 | 0.00 | 55 | 1009.5 |
| 20260505053533 | 60 | 201 | 9.6 | 19.1 | 0.00 | 0.00 | 0.00 | 54 | 1009.5 |
| 20260505053034 | 60 | 174 | 17.4 | 20.9 | 0.00 | 0.00 | 0.00 | 53 | 1009.4 |
| 20260505052533 | 60 | 188 | 10.4 | 20.9 | 0.00 | 0.00 | 0.00 | 52 | 1009.2 |
| 20260505052033 | 60 | 221 | 6.1 | 20.0 | 0.00 | 0.00 | 0.00 | 52 | 1009.1 |
| 20260505051603 | 60 | 190 | 9.6 | 19.1 | 0.00 | 0.00 | 0.00 | 52 | 1008.7 |
| 20260505051033 | 60 | 164 | 12.2 | 20.0 | 0.00 | 0.00 | 0.00 | 52 | 1008.7 |
| 20260505050533 | 61 | 184 | 8.7 | 20.9 | 0.00 | 0.00 | 0.00 | 52 | 1009.0 |
| 20260505041533 | 64 | 205 | 8.7 | 13.9 | 0.00 | 0.00 | 0.00 | 45 | 1008.0 |
| 20260505041033 | 64 | 202 | 7.8 | 12.2 | 0.00 | 0.00 | 0.00 | 44 | 1008.1 |
| 20260505040533 | 64 | 232 | 6.1 | 13.0 | 0.00 | 0.00 | 0.00 | 43 | 1008.1 |
| 20260505035533 | 64 | 192 | 8.7 | 11.3 | 0.00 | 0.00 | 0.00 | 42 | 1008.0 |
| 20260505035032 | 64 | 204 | 5.2 | 11.3 | 0.00 | 0.00 | 0.00 | 42 | 1007.8 |
| 20260505034533 | 65 | 196 | 4.3 | 13.9 | 0.00 | 0.00 | 0.00 | 41 | 1007.8 |
| 20260505034032 | 65 | 208 | 8.7 | 13.9 | 0.00 | 0.00 | 0.00 | 41 | 1007.7 |
| 20260505033603 | 65 | 211 | 8.7 | 10.4 | 0.00 | 0.00 | 0.00 | 40 | 1007.7 |
| 20260505033103 | 65 | 263 | 2.6 | 10.4 | 0.00 | 0.00 | 0.00 | 39 | 1007.6 |
| 20260505032603 | 66 | 210 | 2.6 | 9.6 | 0.00 | 0.00 | 0.00 | 38 | 1007.8 |
| 20260505032032 | 66 | 179 | 3.5 | 8.7 | 0.00 | 0.00 | 0.00 | 37 | 1007.8 |
| 20260505031602 | 66 | 233 | 3.5 | 8.7 | 0.00 | 0.00 | 0.00 | 37 | 1007.2 |
| 20260505031103 | 66 | 199 | 4.3 | 7.8 | 0.00 | 0.00 | 0.00 | 37 | 1007.2 |
| 20260505030602 | 66 | 204 | 2.6 | 7.8 | 0.00 | 0.00 | 0.00 | 37 | 1007.1 |
| 20260505025032 | 67 | 196 | 9.6 | 9.6 | 0.00 | 0.00 | 0.00 | 36 | 1007.3 |
| 20260505024032 | 67 | 209 | 2.6 | 9.6 | 0.00 | 0.00 | 0.00 | 35 | 1007.2 |
| 20260505023532 | 67 | 209 | 3.5 | 9.6 | 0.00 | 0.00 | 0.00 | 35 | 1007.2 |
| 20260505022602 | 68 | 206 | 3.5 | 8.7 | 0.00 | 0.00 | 0.00 | 35 | 1007.1 |
| 20260505022102 | 68 | 184 | 3.5 | 8.7 | 0.00 | 0.00 | 0.00 | 34 | 1007.1 |
| 20260505021602 | 68 | 188 | 3.5 | 8.7 | 0.00 | 0.00 | 0.00 | 34 | 1006.2 |
| 20260505021032 | 68 | 215 | 3.5 | 7.8 | 0.00 | 0.00 | 0.00 | 34 | 1006.1 |
| 20260505020532 | 68 | 174 | 5.2 | 8.7 | 0.00 | 0.00 | 0.00 | 34 | 1006.1 |
| 20260505020032 | 68 | 213 | 2.6 | 8.7 | 0.00 | 0.00 | 0.00 | 34 | 1006.2 |
| 20260505015532 | 68 | 163 | 3.5 | 7.8 | 0.00 | 0.00 | 0.00 | 33 | 1006.1 |
| 20260505015032 | 69 | 236 | 4.3 | 7.8 | 0.00 | 0.00 | 0.00 | 33 | 1006.1 |
| 20260505014102 | 68 | 207 | 7.8 | 8.7 | 0.00 | 0.00 | 0.00 | 32 | 1006.1 |
| 20260505013532 | 68 | 170 | 2.6 | 4.3 | 0.00 | 0.00 | 0.00 | 35 | 1006.2 |
| 20260505013031 | 68 | 55 | 0.0 | 0.9 | 0.00 | 0.00 | 0.00 | 36 | 1006.2 |
| 20260505012531 | 68 | 54 | 0.0 | 0.9 | 0.00 | 0.00 | 0.00 | 36 | 1006.3 |
| 20260505012101 | 69 | 55 | 0.0 | 1.7 | 0.00 | 0.00 | 0.00 | 35 | 1006.3 |
| 20260505011532 | 69 | 55 | 0.9 | 1.7 | 0.00 | 0.00 | 0.00 | 34 | 1005.4 |
| 20260505011032 | 69 | 54 | 0.9 | 1.7 | 0.00 | 0.00 | 0.00 | 33 | 1005.4 |
| 20260505010601 | 69 | 54 | 0.0 | 1.7 | 0.00 | 0.00 | 0.00 | 35 | 1005.5 |
| 20260505010031 | 69 | 55 | 0.9 | 1.7 | 0.00 | 0.00 | 0.00 | 35 | 1005.5 |
| 20260505005531 | 68 | 55 | 0.9 | 1.7 | 0.00 | 0.00 | 0.00 | 35 | 1005.5 |
| 20260505005032 | 68 | 54 | 0.0 | 1.7 | 0.00 | 0.00 | 0.00 | 35 | 1005.5 |
| 20260505004601 | 68 | 54 | 0.0 | 4.3 | 0.00 | 0.00 | 0.00 | 34 | 1005.5 |
| 20260505003531 | 68 | 55 | 2.6 | 10.4 | 0.00 | 0.00 | 0.00 | 34 | 1005.6 |
| 20260505003101 | 68 | 86 | 7.0 | 10.4 | 0.00 | 0.00 | 0.00 | 34 | 1005.6 |
| 20260505001601 | 69 | 27 | 2.6 | 11.3 | 0.00 | 0.00 | 0.00 | 33 | 1006.3 |
| 20260505001031 | 69 | 53 | 4.3 | 14.8 | 0.00 | 0.00 | 0.00 | 34 | 1006.3 |
| 20260505000601 | 69 | 21 | 1.7 | 14.8 | 0.00 | 0.00 | 0.00 | 34 | 1006.4 |
| 20260505000101 | 69 | 58 | 5.2 | 11.3 | 0.00 | 0.00 | 0.00 | 34 | 1006.5 |
| 20260504235601 | 69 | 48 | 3.5 | 12.2 | 0.00 | 0.00 | 0.00 | 35 | 1006.5 |
| 20260504235100 | 68 | 36 | 3.5 | 13.9 | 0.00 | 0.00 | 0.00 | 38 | 1006.3 |
| 20260504234601 | 67 | 68 | 10.4 | 13.9 | 0.00 | 0.00 | 0.00 | 38 | 1006.3 |
| 20260504234101 | 67 | 50 | 4.3 | 10.4 | 0.00 | 0.00 | 0.00 | 39 | 1006.3 |
| 20260504233601 | 67 | 3 | 3.5 | 11.3 | 0.00 | 0.00 | 0.00 | 39 | 1006.4 |
| 20260504233101 | 67 | 42 | 3.5 | 14.8 | 0.00 | 0.00 | 0.00 | 39 | 1006.5 |
| 20260504232600 | 67 | 7 | 8.7 | 14.8 | 0.00 | 0.00 | 0.00 | 38 | 1006.5 |
| 20260504232101 | 68 | 80 | 9.6 | 12.2 | 0.00 | 0.00 | 0.00 | 38 | 1006.4 |
| 20260504231601 | 68 | 7 | 7.0 | 12.2 | 0.00 | 0.00 | 0.00 | 39 | 1006.7 |
| 20260504231031 | 67 | 90 | 6.1 | 8.7 | 0.00 | 0.00 | 0.00 | 41 | 1006.8 |
| 20260504230531 | 67 | 82 | 7.0 | 7.0 | 0.00 | 0.00 | 0.00 | 41 | 1007.0 |
| 20260504230030 | 67 | 67 | 1.7 | 7.8 | 0.00 | 0.00 | 0.00 | 43 | 1007.2 |
| 20260504225600 | 67 | 53 | 3.5 | 7.8 | 0.00 | 0.00 | 0.00 | 43 | 1007.3 |
| 20260504225100 | 66 | 61 | 5.2 | 7.8 | 0.00 | 0.00 | 0.00 | 44 | 1006.9 |
| 20260504224600 | 65 | 1 | 5.2 | 7.8 | 0.00 | 0.00 | 0.00 | 42 | 1006.7 |
| 20260504224100 | 65 | 5 | 2.6 | 9.6 | 0.00 | 0.00 | 0.00 | 44 | 1006.8 |
| 20260504223600 | 65 | 307 | 4.3 | 13.9 | 0.00 | 0.00 | 0.00 | 43 | 1007.0 |
| 20260504223030 | 64 | 298 | 2.6 | 13.9 | 0.00 | 0.00 | 0.00 | 46 | 1006.9 |
| 20260504222600 | 63 | 294 | 5.2 | 17.4 | 0.00 | 0.00 | 0.00 | 50 | 1006.9 |
| 20260504222100 | 63 | 356 | 5.2 | 23.5 | 0.00 | 0.00 | 0.00 | 46 | 1007.0 |
| 20260504221600 | 65 | 29 | 10.4 | 23.5 | 0.00 | 0.00 | 0.00 | 45 | 1007.6 |
| 20260504220100 | 70 | 104 | 1.7 | 9.6 | 0.00 | 0.00 | 0.00 | 29 | 1007.7 |
| 20260504215559 | 70 | 157 | 5.2 | 11.3 | 0.00 | 0.00 | 0.00 | 29 | 1007.7 |
| 20260504215029 | 70 | 157 | 7.8 | 13.9 | 0.00 | 0.00 | 0.00 | 30 | 1007.7 |
| 20260504214529 | 70 | 166 | 7.0 | 13.9 | 0.00 | 0.00 | 0.00 | 30 | 1007.6 |
| 20260504214030 | 71 | 167 | 11.3 | 12.2 | 0.00 | 0.00 | 0.00 | 28 | 1007.2 |
| 20260504213100 | 72 | 169 | 4.3 | 10.4 | 0.00 | 0.00 | 0.00 | 27 | 1007.4 |
| 20260504212559 | 72 | 259 | 3.5 | 10.4 | 0.00 | 0.00 | 0.00 | 27 | 1007.3 |
| 20260504212059 | 73 | 205 | 1.7 | 5.2 | 0.00 | 0.00 | 0.00 | 27 | 1007.4 |
| 20260504211059 | 74 | 205 | 2.6 | 7.0 | 0.00 | 0.00 | 0.00 | 26 | 1007.2 |
| 20260504210559 | 75 | 296 | 0.9 | 3.5 | 0.00 | 0.00 | 0.00 | 26 | 1007.2 |
| 20260504205559 | 75 | 295 | 0.9 | 7.0 | 0.00 | 0.00 | 0.00 | 27 | 1007.2 |
| 20260504205059 | 75 | 296 | 2.6 | 7.0 | 0.00 | 0.00 | 0.00 | 26 | 1007.3 |
| 20260504204559 | 75 | 282 | 3.5 | 6.1 | 0.00 | 0.00 | 0.00 | 27 | 1007.3 |
| 20260504204059 | 75 | 281 | 0.9 | 6.1 | 0.00 | 0.00 | 0.00 | 26 | 1007.2 |
| 20260504203559 | 75 | 280 | 2.6 | 6.1 | 0.00 | 0.00 | 0.00 | 25 | 1007.3 |
| 20260504203059 | 75 | 232 | 1.7 | 6.1 | 0.00 | 0.00 | 0.00 | 25 | 1007.4 |
| 20260504202558 | 76 | 213 | 4.3 | 7.0 | 0.00 | 0.00 | 0.00 | 23 | 1007.6 |
| 20260504202059 | 76 | 255 | 1.7 | 7.0 | 0.00 | 0.00 | 0.00 | 24 | 1007.7 |
| 20260504201059 | 76 | 244 | 4.3 | 6.1 | 0.00 | 0.00 | 0.00 | 24 | 1007.8 |
| 20260504200059 | 76 | 232 | 1.7 | 8.7 | 0.00 | 0.00 | 0.00 | 24 | 1007.8 |
| 20260504195529 | 75 | 190 | 3.5 | 8.7 | 0.00 | 0.00 | 0.00 | 24 | 1007.5 |
| 20260504194559 | 75 | 154 | 3.5 | 5.2 | 0.00 | 0.00 | 0.00 | 24 | 1007.5 |
| 20260504193559 | 75 | 275 | 1.7 | 8.7 | 0.00 | 0.00 | 0.00 | 22 | 1007.8 |
| 20260504193058 | 76 | 271 | 7.8 | 9.6 | 0.00 | 0.00 | 0.00 | 22 | 1008.2 |
| 20260504192558 | 77 | 282 | 3.5 | 9.6 | 0.00 | 0.00 | 0.00 | 23 | 1008.1 |
| 20260504192058 | 77 | 288 | 5.2 | 8.7 | 0.00 | 0.00 | 0.00 | 23 | 1008.2 |
| 20260504191558 | 77 | 206 | 2.6 | 10.4 | 0.00 | 0.00 | 0.00 | 23 | 1007.4 |
| 20260504191058 | 77 | 193 | 8.7 | 10.4 | 0.00 | 0.00 | 0.00 | 22 | 1007.3 |
| 20260504190058 | 76 | 296 | 3.5 | 8.7 | 0.00 | 0.00 | 0.00 | 24 | 1007.3 |
| 20260504185558 | 76 | 179 | 7.0 | 7.8 | 0.00 | 0.00 | 0.00 | 24 | 1007.4 |
| 20260504185058 | 75 | 204 | 1.7 | 8.7 | 0.00 | 0.00 | 0.00 | 26 | 1007.4 |
| 20260504184558 | 75 | 205 | 3.5 | 10.4 | 0.00 | 0.00 | 0.00 | 24 | 1007.5 |
| 20260504184058 | 76 | 223 | 2.6 | 10.4 | 0.00 | 0.00 | 0.00 | 24 | 1007.6 |
| 20260504183058 | 75 | 224 | 2.6 | 10.4 | 0.00 | 0.00 | 0.00 | 24 | 1007.6 |
| 20260504182557 | 75 | 212 | 2.6 | 10.4 | 0.00 | 0.00 | 0.00 | 26 | 1007.7 |
| 20260504182057 | 75 | 192 | 3.5 | 8.7 | 0.00 | 0.00 | 0.00 | 24 | 1007.7 |
| 20260504181558 | 75 | 255 | 1.7 | 8.7 | 0.00 | 0.00 | 0.00 | 25 | 1008.1 |
| 20260504180557 | 74 | 194 | 6.1 | 10.4 | 0.00 | 0.00 | 0.00 | 26 | 1008.3 |
| 20260504180057 | 74 | 210 | 4.3 | 10.4 | 0.00 | 0.00 | 0.00 | 24 | 1008.3 |
| 20260504175557 | 74 | 255 | 2.6 | 9.6 | 0.00 | 0.00 | 0.00 | 26 | 1008.4 |
| 20260504175057 | 74 | 161 | 4.3 | 9.6 | 0.00 | 0.00 | 0.00 | 27 | 1008.5 |
| 20260504174558 | 74 | 209 | 5.2 | 11.3 | 0.00 | 0.00 | 0.00 | 26 | 1008.4 |
| 20260504173557 | 73 | 179 | 7.8 | 11.3 | 0.00 | 0.00 | 0.00 | 28 | 1008.2 |
| 20260504173057 | 73 | 253 | 2.6 | 12.2 | 0.00 | 0.00 | 0.00 | 28 | 1008.4 |
| 20260504172558 | 73 | 184 | 7.0 | 12.2 | 0.00 | 0.00 | 0.00 | 28 | 1008.4 |
| 20260504172057 | 73 | 207 | 4.3 | 9.6 | 0.00 | 0.00 | 0.00 | 29 | 1008.5 |
| 20260504171057 | 73 | 196 | 6.1 | 10.4 | 0.00 | 0.00 | 0.00 | 29 | 1009.1 |
| 20260504170557 | 72 | 184 | 0.0 | 10.4 | 0.00 | 0.00 | 0.00 | 29 | 1009.1 |
| 20260504151056 | 66 | 131 | 1.7 | 1.7 | 0.00 | 0.00 | 0.00 | 35 | 1010.1 |
| 20260504150556 | 66 | 131 | 0.9 | 1.7 | 0.00 | 0.00 | 0.00 | 32 | 1010.2 |
| 20260504141055 | 59 | 130 | 0.0 | 1.7 | 0.00 | 0.00 | 0.00 | 41 | 1010.1 |
| 20260504140555 | 59 | 132 | 0.9 | 1.7 | 0.00 | 0.00 | 0.00 | 43 | 1010.1 |
| 20260504130554 | 54 | 131 | 0.0 | 2.6 | 0.00 | 0.00 | 0.00 | 43 | 1010.0 |
| 20260504110554 | 60 | 12 | 1.7 | 3.5 | 0.00 | 0.00 | 0.00 | 32 | 1011.2 |
| 20260504100553 | 58 | 189 | 0.9 | 4.3 | 0.00 | 0.00 | 0.00 | 37 | 1010.8 |
| 20260504081552 | 56 | 282 | 3.5 | 5.2 | 0.00 | 0.00 | 0.00 | 41 | 1010.9 |
| 20260504081053 | 54 | 288 | 1.7 | 5.2 | 0.00 | 0.00 | 0.00 | 43 | 1010.5 |
| 20260504080553 | 53 | 290 | 0.0 | 7.0 | 0.00 | 0.00 | 0.00 | 46 | 1010.5 |